DELTA 2 R/B

Last updated on Sat Aug 15 2026 00:02:08 GMT+0000 (Coordinated Universal Time)

1 25876U 99041E 26226.42611340 .00000853 00000+0 17666-3 0 9994 2 25876 51.7621 31.0790 0501348 94.0035 271.8340 14.12184005385315
UTC large
Height (km)
Speed (km/s)
/
Latitude / Longitude
Inclination (degrees)
Orbital Period (minutes)
Azimuth
Elevation
Range (km)
Doppler Factor

Next 0 passes for location: London (51.5072 / 0.1276)

No passes found over London.
DELTA 2 R/B